Location: Newark
(12.0500°N, 61.7500°W)
Time: 14:53:58
(UTC+00:00)

Envisat - Visible Passes

Search period start: 23 January 2020 00:00
Search period end: 02 February 2020 00:00
Orbit: 764 x 766 km, 98.1° (Epoch: 23 January)

Date Brightness Start Highest point End Pass type
(mag) Time Alt. Az. Time Alt. Az. Time Alt. Az.
23 Jan 6.6 09:22:01 10° E 09:22:57 10° E 09:23:53 10° ESE visible
24 Jan 5.2 22:58:26 10° SSW 23:02:48 29° W 23:07:11 10° NW visible
25 Jan 5.8 09:44:31 10° NE 09:48:27 23° E 09:52:22 10° SSE visible
25 Jan 3.1 22:21:00 10° S 22:26:04 84° WSW 22:31:09 10° NNW visible
26 Jan 6.2 23:25:38 10° SW 23:28:17 14° W 23:30:55 10° WNW visible
27 Jan 4.3 10:09:03 10° NNE 10:13:55 46° E 10:18:46 10° S visible
27 Jan 4.6 22:46:48 10° S 22:51:31 40° W 22:56:14 10° NNW visible
28 Jan 6.1 09:33:58 10° ENE 09:37:09 17° E 09:40:20 10° SE visible
29 Jan 5.9 23:13:24 10° SW 23:16:59 19° W 23:20:34 10° NW visible
30 Jan 5.0 09:58:03 10° NE 10:02:38 34° E 10:07:12 10° SSE visible
30 Jan 3.9 22:35:18 10° S 22:40:14 54° W 22:45:11 10° NNW visible
31 Jan 6.4 09:23:57 10° ENE 09:25:52 12° E 09:27:46 10° ESE visible
01 Feb 5.4 23:01:30 10° SSW 23:05:42 26° W 23:09:54 10° NW visible
